IRIDIUM 35

Last updated on Wed Nov 29 2017 00:19:02 GMT+0000 (Coordinated Universal Time)

1 24966U 97056B 17332.30035353 .00000201 00000-0 64710-4 0 9997 2 24966 86.3981 250.0574 0002044 82.3728 277.7700 14.34222081 56050
UTC large
Height (km)
Speed (km/s)
/
Latitude / Longitude
Inclination (degrees)
Orbital Period (minutes)
Azimuth
Elevation
Range (km)
Doppler Factor

Next 0 passes for location: London (51.5072 / 0.1276)

Sorry there are no passes over London.